Location: Albuquerque Trailhead
(34.7934°N, 106.3736°W)
Time: 12:28:58
(UTC+00:00)

Cosmos 540 Rocket - Pass Details

Date: 20 June 2021
Orbit: 739 x 754 km, 74.1° (Epoch: 30 July)

Event Time Altitude Azimuth Distance (km) Brightness Sun altitude
Exits shadow 08:34:13 44° 312° (NW) 1,020 4.2 -28.2°
Drops below altitude 10° 08:38:31 10° 4° (N) 2,254 6.8 -27.9°
Sets 08:40:58 0° 11° (N) 3,182 7.9 -27.7°
